Flag Weather past 2 weeks in Mons, Belgium

Now
41 °F

Passing clouds.


Feels Like: 38 °F
Forecast: 36 / 46 °F
Wind: 5 mph from East

Location: Chievres

Current Time: Nov 29, 2014 at 2:53:07 AM

Latest Report: Nov 29, 2014 at 1:25 AM


Visibility: 4 mi

Pressure: 29.80 "Hg

Humidity: 93%

Dew point: 39 °F

Location of MonsLocation

Historic Weather in Mons — Graph

°F

Mons temperature yesterday

Maximum temperature yesterday: 59 °F (at 1:25 PM)
Minimum temperature yesterday: 43 °F (at 11:25 PM)
Average temperature yesterday: 50 °F

Past Weeks' High & Low Weather Summary

 TemperatureHumidityPressure
High59 °F (Nov 23, 12:25 PM)100% (Nov 14, 4:25 PM)30.33 "Hg (Nov 14, 4:25 PM)
Low34 °F (Nov 21, 8:25 AM)63% (Nov 28, 1:25 PM)29.47 "Hg (Nov 16, 10:56 PM)
Average47 °F92%29.88 "Hg
* Reported Nov 14 1:25 AM — Nov 29 1:25 AM, Mons, Weather by CustomWeather, © 2014

Note: Actual official high and low records may vary slightly from our data, if they occured in-between our weather recording intervals... More about our weather records

Advertising

Mons weather history for previous 24 hours

 ConditionsComfort  
Time TempWeatherWind HumidityBarometerVisibility
1:25 AM
Nov 29
41 °FPassing clouds.5 mph93%29.80 "Hg4 mi
12:25 AM43 °FPassing clouds.10 mph93%29.77 "Hg4 mi
11:25 PM
Nov 28
43 °FQuite cool.8 mph93%29.80 "Hg4 mi
10:55 PM45 °FQuite cool.7 mph87%29.77 "Hg4 mi
10:54 PM45 °FQuite cool.7 mph87%29.77 "Hg5 mi
10:25 PM45 °FPassing clouds.6 mph87%29.77 "Hg5 mi
9:54 PM46 °FPassing clouds.6 mph87%29.77 "Hg4 mi
9:25 PM46 °FPassing clouds.7 mph87%29.74 "Hg5 mi
8:25 PM48 °FCool.9 mph82%29.74 "HgN/A
7:25 PM50 °FCool.10 mph82%29.71 "HgN/A
6:25 PM54 °FPartly cloudy.10 mph72%29.71 "HgN/A
5:25 PM54 °FPassing clouds.12 mph72%29.68 "HgN/A
4:25 PM55 °FPartly sunny.5 mph72%29.68 "HgN/A
3:50 PM55 °FPartly sunny.7 mph77%29.65 "HgN/A
3:25 PM55 °FPartly sunny.8 mph77%29.65 "HgN/A
2:25 PM57 °FPartly sunny.9 mph67%29.65 "HgN/A
1:25 PM59 °FCool.10 mph63%29.65 "HgN/A
12:25 PM55 °FCool.7 mph72%29.65 "HgN/A
11:25 AM54 °FPassing clouds.8 mph77%29.65 "HgN/A
10:25 AM52 °FCool.8 mph77%29.65 "HgN/A
9:25 AM50 °FPassing clouds.7 mph82%29.65 "HgN/A
8:25 AM50 °FOvercast.9 mph82%29.65 "HgN/A
7:25 AM50 °FPassing clouds.12 mph82%29.62 "HgN/A
6:25 AM48 °FPassing clouds.12 mph87%29.62 "HgN/A
5:25 AM48 °FPassing clouds.9 mph94%29.62 "HgN/A
4:25 AM48 °FMostly cloudy.6 mph94%29.62 "Hg3 mi
3:25 AM46 °FCool.6 mph93%29.65 "Hg3 mi
2:52 AM46 °FPassing clouds.5 mph100%29.65 "Hg3 mi
2:25 AM48 °FPassing clouds.5 mph94%29.65 "Hg3 mi
Weather by CustomWeather, © 2014

See weather overviewHow to use our weather pages